Flag for U.S.A. Weather past 2 weeks in Augusta, Georgia, U.S.A.

Now
88 °F

Partly sunny.


Feels Like: 94 °F
Forecast: 72 / 93 °F
Wind: 8 mph from Southeast

Location: Daniel Field

Current Time: Aug 2, 2015 at 2:51:04 PM

Latest Report: Aug 2, 2015 at 1:53 PM


Visibility: 10 mi

Pressure: 29.90 "Hg

Humidity: 57%

Dew point: 71 °F

Location of AugustaLocation

Historic Weather in Augusta — Graph

°F

Augusta temperature yesterday

Maximum temperature yesterday: 94 °F (at 3:53 PM)
Minimum temperature yesterday: 76 °F (at 5:53 AM)
Average temperature yesterday: 84 °F

Past Weeks' High & Low Weather Summary

 TemperatureHumidityPressure
High102 °F (Jul 21, 4:53 PM)94% (Aug 2, 8:59 AM)30.03 "Hg (Aug 2, 8:59 AM)
Low73 °F (Jul 26, 6:53 AM)29% (Jul 22, 3:53 PM)29.75 "Hg (Jul 21, 4:53 PM)
Average86 °F62%29.92 "Hg
* Reported Jul 18 1:53 PM — Aug 2 1:53 PM, Augusta, Weather by CustomWeather, © 2015

Note: Actual official high and low records may vary slightly from our data, if they occured in-between our weather recording intervals... More about our weather records

Advertising

Augusta weather history for previous 24 hours

 ConditionsComfort  
Time TempWeatherWind HumidityBarometerVisibility
1:53 PM
Sun, Aug 2
88 °FPartly sunny.8 mph57%29.90 "Hg10 mi
12:53 PM88 °FScattered clouds.7 mph57%29.92 "Hg10 mi
11:53 AM87 °FPassing clouds.7 mph61%29.94 "Hg10 mi
10:53 AM82 °FPartly sunny.No wind77%29.94 "Hg8 mi
9:53 AM80 °FLow clouds.6 mph81%29.94 "Hg5 mi
8:59 AM76 °FFog.3 mph94%29.96 "Hg1 mi
7:53 AM76 °FFog.No wind91%29.93 "Hg2 mi
6:53 AM75 °FPassing clouds.3 mph88%29.91 "Hg10 mi
5:53 AM76 °FOvercast.3 mph85%29.89 "Hg10 mi
4:53 AM76 °FOvercast.No wind88%29.89 "Hg10 mi
3:53 AM75 °FPassing clouds.No wind88%29.89 "Hg10 mi
2:53 AM76 °FPassing clouds.No wind85%29.90 "Hg10 mi
1:53 AM76 °FClear.5 mph88%29.91 "Hg10 mi
12:53 AM78 °FClear.5 mph82%29.92 "Hg10 mi
11:53 PM
Sat, Aug 1
79 °FPassing clouds.3 mph79%29.92 "Hg10 mi
10:53 PM80 °FPassing clouds.5 mph76%29.92 "Hg10 mi
9:53 PM82 °FPassing clouds.5 mph70%29.90 "Hg10 mi
8:53 PM83 °FBroken clouds.7 mph68%29.89 "Hg10 mi
7:53 PM85 °FPartly sunny.12 mph68%29.87 "Hg10 mi
6:53 PM88 °FSunny.3 mph55%29.85 "Hg10 mi
5:53 PM92 °FPassing clouds.8 mph41%29.86 "Hg10 mi
4:53 PM90 °FPartly sunny.8 mph52%29.87 "Hg10 mi
3:53 PM94 °FScattered clouds.3 mph37%29.88 "Hg10 mi
2:53 PM93 °FScattered clouds.5 mph40%29.90 "Hg10 mi
Weather by CustomWeather, © 2015

See weather overviewHow to use our weather pages